Location: Arclight Observatory
(36.5667°N, 87.3333°W)
Time: 05:47:31
(UTC-06:00)

Daily predictions for brighter satellites

Satellite Brightness Start Highest point End
(mag) Time Altitude Azimuth Time Altitude Azimuth Time Altitude Azimuth
Lacrosse 5 4.3 03:16:33 17° NE 03:16:33 17° NE 03:17:40 10° NE
ATLAS CENTAUR R/B 3.7 03:21:01 75° E 03:21:01 75° E 03:35:53 10° SE
CZ-4C R/B 3.5 03:27:47 36° ENE 03:27:47 36° ENE 03:31:37 10° NE
Cosmos 2369 Rocket 4.3 03:41:23 16° N 03:41:23 16° N 03:42:32 10° N
USA 234 3.4 03:38:04 10° NE 03:44:33 63° SE 03:45:09 60° SSE
Meteor 2-10 Rocket 4.0 03:54:32 55° ENE 03:54:32 55° ENE 03:59:01 10° NNE
ATLAS 3B R/B 4.1 03:51:52 10° S 03:58:43 38° ESE 04:05:26 10° NE
Okean 1-7 4.2 04:00:19 40° E 04:00:19 40° E 04:04:14 10° NNE
Cosmos 2221 Rocket 4.4 04:01:45 51° ENE 04:01:45 51° ENE 04:05:48 10° NNE
Cosmos 1452 Rocket 3.7 04:07:57 61° N 04:07:57 61° N 04:12:20 10° NNE
ATLAS 5 CENTAUR R/B 3.9 04:09:45 17° N 04:09:45 17° N 04:11:32 10° N
Cosmos 1833 4.4 04:11:12 56° S 04:11:12 56° S 04:15:36 10° SSE
Cosmos 1943 Rocket 3.5 04:15:06 26° NNW 04:15:06 26° NNW 04:17:59 10° N
Nadezhda 2 Rocket 4.3 04:08:00 10° N 04:14:05 75° W 04:20:12 10° S
Cosmos 1782 Rocket 3.5 04:21:39 10° N 04:26:08 81° E 04:30:33 10° S
Cosmos 676 Rocket 3.9 04:27:55 57° WNW 04:28:41 65° WSW 04:33:56 10° S
ADEOS II 2.9 04:25:04 10° N 04:28:37 35° NW 04:28:37 35° NW
Cosmos 1417 Rocket 4.3 04:25:12 10° S 04:31:22 79° W 04:37:31 10° N
CZ-4B R/B 3.9 04:27:46 10° N 04:32:07 37° NW 04:32:07 37° NW
Cosmos 1140 Rocket 3.5 04:28:33 10° NNW 04:33:48 84° ENE 04:39:02 10° SSE
Cosmos 1745 Rocket 4.4 04:27:58 10° N 04:34:02 61° E 04:40:05 10° SSE
Cosmos 614 Rocket 4.3 04:30:48 10° NNW 04:35:53 65° ENE 04:40:59 10° SSE
Meteor 1-20 Rocket 4.4 04:38:40 10° N 04:44:21 72° E 04:49:52 10° SSE
Okean-O 2.6 04:41:58 10° N 04:46:21 60° WNW 04:48:07 34° SW
Lacrosse 5 rocket 3.7 04:45:00 10° N 04:47:12 15° NE 04:49:24 10° ENE
Tiangong 1 2.7 04:48:10 23° N 04:48:10 23° N 04:50:15 10° NE
USA 81 4.4 04:42:53 10° S 04:48:06 67° E 04:53:20 10° N
CZ-4B R/B 4.0 04:48:19 10° N 04:52:17 53° WNW 04:53:52 33° SW
Cosmos 1606 3.0 04:50:54 10° S 04:54:43 68° E 04:58:36 10° NNE
Lacrosse 5 3.7 04:55:46 15° NW 04:56:25 15° NNW 04:59:24 10° N
Okean 2 Rocket 3.0 04:53:21 10° NNW 04:57:40 59° W 05:01:59 10° S
Cosmos 1607 3.8 04:54:19 10° SSW 05:00:26 84° WNW 05:06:38 10° NNE
Delta 2 Rocket 3.7 05:00:43 32° WSW 05:02:54 78° S 05:08:10 10° E
Cosmos 1782 2.7 04:59:43 10° SSW 05:03:39 66° W 05:07:36 10° N
Cosmos 2297 Rocket 4.1 05:02:11 10° N 05:07:07 30° ENE 05:12:00 10° ESE
Cosmos 1850 Rocket 3.9 05:06:13 10° NNW 05:11:32 70° WSW 05:16:46 10° S
Gblst 52 Del rocket 4.3 05:09:38 14° SW 05:14:35 90° NW 05:20:55 10° NE
Cosmos 2278 4.1 05:09:19 10° S 05:14:52 65° ESE 05:20:29 10° NNE
CZ-4C R/B 3.3 05:13:00 21° WNW 05:14:57 25° NW 05:19:49 10° N
Meteor 2-6 Rocket 4.0 05:10:18 10° SSW 05:15:40 77° W 05:21:07 10° N
GEOS 3 Rocket 4.1 05:11:29 10° S 05:16:10 38° WSW 05:20:41 11° NW
Cosmos 2151 Rocket 3.5 05:13:04 10° N 05:17:35 80° W 05:22:02 10° S
Ariane Rocket 3.5 05:14:57 10° NNE 05:20:00 65° ESE 05:25:01 10° S
S3M 4.4 05:14:36 10° SSW 05:20:31 41° WNW 05:26:24 10° N
Meteor 2-11 Rocket 4.4 05:14:37 10° SSW 05:20:39 65° W 05:26:46 10° N
Cosmos 2219 3.5 05:19:42 10° NW 05:25:01 42° WSW 05:30:16 10° S
Meteor 1-31 Rocket 4.2 05:22:25 10° NNW 05:25:09 19° WNW 05:25:38 18° W
COSMO-SKYMED 1 2.5 05:21:04 10° S 05:25:20 61° W 05:29:39 10° NNW
USA 234 3.9 05:21:23 10° NNE 05:27:17 38° NNW 05:32:32 13° W
SL-12 R/B (Aux Motor) 3.8 05:25:18 15° NW 05:27:36 71° NNE 05:29:35 10° ESE
Cosmos 2227 Rocket 2.9 05:22:08 10° NNW 05:27:45 58° ENE 05:33:18 10° SE
USA 238 DEB 3.8 05:21:50 10° SSW 05:28:51 88° WNW 05:35:55 10° NNE
USA 238 3.8 05:21:55 10° SSW 05:28:56 89° WNW 05:36:00 10° NNE
Cosmos 1633 2.6 05:27:19 10° N 05:30:57 81° E 05:34:31 10° S
Cosmos 1656 4.5 05:27:27 10° S 05:33:00 58° ESE 05:38:36 10° NNE
Cosmos 1331 Rocket 3.9 05:33:52 10° SSW 05:39:01 75° WNW 05:44:15 10° NNE
IDEFIX/ARIANE 42P 3.5 05:35:34 10° NNE 05:40:40 54° E 05:45:44 10° S
ATLAS 3B R/B 3.2 05:42:11 10° WSW 05:49:22 45° NW 05:56:20 10° NNE
Cosmos 1110 Rocket 4.2 05:49:08 10° SW 05:54:05 46° WNW 05:59:03 10° N
Meteor 1-11 Rocket 3.8 05:49:20 10° NNW 05:55:15 68° W 06:01:01 10° S
Cosmos 1697 Rocket 3.3 05:49:52 10° S 05:55:26 63° ESE 06:01:03 10° NNE
OE (NEXTSAT) 4.4 05:52:20 10° WSW 05:55:51 71° NNW 05:59:24 10° NE
CZ-4 R/B 1.8 05:54:36 10° NNE 05:58:45 73° ESE 06:02:48 10° S
YAOGAN 1 3.9 05:54:37 10° NNE 05:58:48 47° E 06:02:58 10° S
NOSS 3-2 (C) 4.4 05:53:24 10° S 05:59:08 53° ESE 06:05:21 10° NE
Cosmos 1709 Rocket 4.1 05:54:41 10° NNW 06:00:39 57° W 06:06:39 10° S
Cosmos 1980 Rocket 3.9 05:56:32 10° S 06:01:42 40° ESE 06:06:55 10° NE
